| time (UTC) | temp F | wind direction | speed MPH | gust MPH | rain 1hr in | rain 24hr in | rain mn in | humidity % | barometer mb |
| 20260903013012 | 82 | 11 | 5.0 | 9.0 | 0.00 | 0.23 | 0.23 | 90 | 1015.1 |
| 20260903011511 | 82 | 11 | 5.0 | 10.0 | 0.00 | 0.23 | 0.23 | 90 | 1015.2 |
| 20260903010011 | 82 | 11 | 6.0 | 12.0 | 0.00 | 0.23 | 0.23 | 90 | 1015.1 |
| 20260903004509 | 82 | 10 | 5.0 | 10.0 | 0.00 | 0.23 | 0.23 | 90 | 1014.9 |
| 20260903003009 | 81 | 10 | 6.0 | 11.0 | 0.20 | 0.23 | 0.23 | 91 | 1014.9 |
| 20260903001508 | 81 | 9 | 5.0 | 9.0 | 0.20 | 0.23 | 0.23 | 91 | 1014.8 |
| 20260903000008 | 81 | 10 | 5.0 | 9.0 | 0.20 | 0.23 | 0.23 | 92 | 1014.7 |
| 20260902234506 | 81 | 10 | 3.0 | 27.0 | 0.20 | 0.23 | 0.23 | 89 | 1014.7 |
| 20260902233009 | 83 | 11 | 6.0 | 11.0 | 0.00 | 0.03 | 0.03 | 86 | 1014.5 |
| 20260902231507 | 83 | 10 | 5.0 | 10.0 | 0.00 | 0.03 | 0.03 | 86 | 1014.5 |
| 20260902230004 | 83 | 14 | 10.0 | 14.0 | 0.00 | 0.03 | 0.03 | 85 | 1014.2 |
| 20260902224503 | 83 | 13 | 9.0 | 16.0 | 0.00 | 0.03 | 0.03 | 85 | 1014.1 |
| 20260902223002 | 83 | 12 | 11.0 | 14.0 | 0.00 | 0.03 | 0.03 | 84 | 1014.2 |
| 20260902221501 | 83 | 17 | 11.0 | 14.0 | 0.00 | 0.03 | 0.03 | 84 | 1014.1 |
| 20260902220107 | 83 | 11 | 10.0 | 16.0 | 0.00 | 0.03 | 0.03 | 84 | 1014.2 |
| 20260902220006 | 83 | 12 | 10.0 | 16.0 | 0.00 | 0.03 | 0.03 | 84 | 1014.1 |
| 20260902214558 | 84 | 13 | 13.0 | 18.0 | 0.00 | 0.03 | 0.03 | 83 | 1014.3 |
| 20260902213059 | 84 | 10 | 8.0 | 13.0 | 0.00 | 0.03 | 0.03 | 83 | 1014.4 |
| 20260902211600 | 84 | 11 | 10.0 | 18.0 | 0.00 | 0.03 | 0.03 | 83 | 1014.4 |
| 20260902210057 | 85 | 12 | 13.0 | 17.0 | 0.00 | 0.03 | 0.03 | 82 | 1014.4 |
| 20260902204612 | 85 | 66 | 11.0 | 17.0 | 0.00 | 0.03 | 0.03 | 81 | 1014.4 |
| 20260902203057 | 85 | 19 | 11.0 | 15.0 | 0.00 | 0.03 | 0.03 | 81 | 1014.5 |
| 20260902201555 | 85 | 13 | 11.0 | 17.0 | 0.00 | 0.03 | 0.03 | 81 | 1014.4 |
| 20260902200053 | 86 | 59 | 13.0 | 18.0 | 0.00 | 0.03 | 0.03 | 78 | 1014.5 |
| 20260902194557 | 86 | 84 | 12.0 | 17.0 | 0.00 | 0.03 | 0.03 | 77 | 1014.6 |
| 20260902193052 | 87 | 76 | 10.0 | 14.0 | 0.00 | 0.03 | 0.03 | 75 | 1014.7 |
| 20260902191559 | 87 | 96 | 9.0 | 15.0 | 0.00 | 0.03 | 0.03 | 78 | 1014.5 |
| 20260902190048 | 86 | 83 | 9.0 | 17.0 | 0.00 | 0.03 | 0.03 | 80 | 1014.5 |
| 20260902184547 | 86 | 84 | 11.0 | 17.0 | 0.00 | 0.03 | 0.03 | 79 | 1014.8 |
| 20260902183107 | 86 | 112 | 11.0 | 17.0 | 0.00 | 0.03 | 0.03 | 80 | 1014.9 |
| 20260902181545 | 86 | 103 | 9.0 | 17.0 | 0.00 | 0.03 | 0.03 | 80 | 1015.3 |
| 20260902180044 | 87 | 80 | 12.0 | 17.0 | 0.00 | 0.03 | 0.03 | 77 | 1015.5 |
| 20260902174544 | 87 | 88 | 11.0 | 18.0 | 0.00 | 0.03 | 0.03 | 76 | 1015.6 |
| 20260902173053 | 87 | 80 | 12.0 | 18.0 | 0.00 | 0.03 | 0.03 | 77 | 1015.6 |
| 20260902171544 | 86 | 360 | 11.0 | 17.0 | 0.00 | 0.03 | 0.03 | 77 | 1015.9 |
| 20260902170045 | 87 | 97 | 10.0 | 13.0 | 0.00 | 0.03 | 0.03 | 77 | 1015.9 |
| 20260902164552 | 87 | 55 | 9.0 | 14.0 | 0.00 | 0.03 | 0.03 | 77 | 1015.8 |
| 20260902163037 | 86 | 360 | 6.0 | 14.0 | 0.00 | 0.03 | 0.03 | 77 | 1015.8 |
| 20260902161535 | 86 | 69 | 8.0 | 13.0 | 0.00 | 0.03 | 0.03 | 78 | 1015.8 |
| 20260902160038 | 86 | 90 | 8.0 | 15.0 | 0.00 | 0.03 | 0.03 | 78 | 1016.2 |
| 20260902154545 | 86 | 57 | 9.0 | 14.0 | 0.00 | 0.03 | 0.03 | 78 | 1016.5 |
| 20260902153026 | 85 | 69 | 8.0 | 15.0 | 0.02 | 0.03 | 0.03 | 80 | 1016.5 |
| 20260902151531 | 84 | 61 | 10.0 | 15.0 | 0.03 | 0.03 | 0.03 | 83 | 1016.5 |
| 20260902150020 | 83 | 71 | 8.0 | 14.0 | 0.03 | 0.03 | 0.03 | 87 | 1016.6 |
| 20260902144518 | 81 | 10 | 7.0 | 14.0 | 0.03 | 0.03 | 0.03 | 89 | 1016.7 |
| 20260902143017 | 83 | 11 | 11.0 | 16.0 | 0.01 | 0.01 | 0.01 | 83 | 1016.9 |
| 20260902141515 | 84 | 36 | 10.0 | 16.0 | 0.00 | 0.00 | 0.00 | 80 | 1016.8 |
| 20260902140016 | 86 | 40 | 10.0 | 15.0 | 0.00 | 0.00 | 0.00 | 78 | 1016.6 |
| 20260902134510 | 85 | 59 | 7.0 | 11.0 | 0.00 | 0.00 | 0.00 | 81 | 1016.3 |
| 20260902133012 | 84 | 37 | 4.0 | 9.0 | 0.00 | 0.00 | 0.00 | 81 | 1016.3 |
| 20260902131503 | 82 | 17 | 9.0 | 12.0 | 0.00 | 0.00 | 0.00 | 83 | 1016.5 |
| 20260902130004 | 82 | 13 | 9.0 | 14.0 | 0.00 | 0.00 | 0.00 | 85 | 1016.6 |
| 20260902124557 | 82 | 48 | 7.0 | 10.0 | 0.00 | 0.00 | 0.00 | 85 | 1016.2 |
| 20260902123054 | 81 | 17 | 5.0 | 10.0 | 0.00 | 0.00 | 0.00 | 87 | 1016.2 |
| 20260902121553 | 81 | 14 | 6.0 | 9.0 | 0.00 | 0.00 | 0.00 | 88 | 1016.2 |
| 20260902120049 | 80 | 9 | 3.0 | 6.0 | 0.00 | 0.00 | 0.00 | 89 | 1016.2 |
| 20260902114607 | 80 | 9 | 4.0 | 9.0 | 0.00 | 0.00 | 0.00 | 89 | 1016.1 |
| 20260902113043 | 80 | 17 | 4.0 | 9.0 | 0.00 | 0.00 | 0.00 | 90 | 1015.9 |
| 20260902111545 | 80 | 9 | 6.0 | 10.0 | 0.00 | 0.00 | 0.00 | 90 | 1015.8 |
| 20260902110052 | 80 | 9 | 5.0 | 8.0 | 0.00 | 0.00 | 0.00 | 92 | 1015.8 |
| 20260902104543 | 80 | 17 | 3.0 | 5.0 | 0.00 | 0.00 | 0.00 | 92 | 1015.8 |
| 20260902103047 | 79 | 5 | 2.0 | 4.0 | 0.00 | 0.00 | 0.00 | 92 | 1015.5 |
| 20260902101547 | 80 | 17 | 4.0 | 5.0 | 0.00 | 0.00 | 0.00 | 91 | 1015.4 |
| 20260902100038 | 80 | 360 | 3.0 | 5.0 | 0.00 | 0.00 | 0.00 | 91 | 1015.4 |
| 20260902094537 | 80 | 9 | 2.0 | 6.0 | 0.00 | 0.00 | 0.00 | 92 | 1015.4 |
| 20260902093040 | 80 | 9 | 3.0 | 6.0 | 0.00 | 0.00 | 0.00 | 92 | 1015.2 |
| 20260902091536 | 80 | 17 | 2.0 | 5.0 | 0.00 | 0.00 | 0.00 | 91 | 1014.9 |
| 20260902090035 | 80 | 17 | 3.0 | 8.0 | 0.00 | 0.00 | 0.00 | 91 | 1014.8 |
| 20260902084533 | 80 | 17 | 4.0 | 7.0 | 0.00 | 0.00 | 0.00 | 91 | 1014.6 |
| 20260902083037 | 80 | 9 | 1.0 | 4.0 | 0.00 | 0.00 | 0.00 | 91 | 1014.8 |
| 20260902081541 | 81 | 17 | 2.0 | 5.0 | 0.00 | 0.00 | 0.00 | 90 | 1014.9 |
| 20260902080044 | 81 | 360 | 2.0 | 6.0 | 0.00 | 0.00 | 0.00 | 90 | 1014.9 |
| 20260902074529 | 81 | 10 | 3.0 | 8.0 | 0.00 | 0.00 | 0.00 | 90 | 1015.0 |
| 20260902073032 | 81 | 9 | 3.0 | 5.0 | 0.00 | 0.00 | 0.00 | 90 | 1015.0 |
| 20260902071532 | 81 | 5 | 4.0 | 5.0 | 0.00 | 0.00 | 0.00 | 90 | 1015.0 |
| 20260902070026 | 81 | 17 | 3.0 | 7.0 | 0.00 | 0.00 | 0.00 | 90 | 1015.1 |
| 20260902064525 | 81 | 9 | 3.0 | 5.0 | 0.00 | 0.00 | 0.00 | 90 | 1015.2 |
| 20260902063024 | 81 | 360 | 4.0 | 6.0 | 0.00 | 0.00 | 0.00 | 90 | 1015.2 |
| 20260902061523 | 81 | 9 | 3.0 | 5.0 | 0.00 | 0.00 | 0.00 | 89 | 1015.5 |
| 20260902060022 | 81 | 360 | 3.0 | 6.0 | 0.00 | 0.00 | 0.00 | 89 | 1015.4 |
| 20260902054529 | 81 | 5 | 5.0 | 8.0 | 0.00 | 0.00 | 0.00 | 89 | 1015.5 |
| 20260902053020 | 81 | 5 | 4.0 | 6.0 | 0.00 | 0.00 | 0.00 | 90 | 1015.5 |
| 20260902051523 | 81 | 9 | 4.0 | 8.0 | 0.00 | 0.00 | 0.00 | 90 | 1015.4 |
| 20260902050018 | 81 | 9 | 4.0 | 9.0 | 0.00 | 0.00 | 0.00 | 90 | 1015.5 |
| 20260902044516 | 81 | 5 | 3.0 | 6.0 | 0.00 | 0.00 | 0.00 | 90 | 1015.6 |
| 20260902043015 | 81 | 17 | 3.0 | 6.0 | 0.00 | 0.00 | 0.00 | 90 | 1015.7 |
| 20260902041513 | 81 | 5 | 5.0 | 9.0 | 0.00 | 0.00 | 0.00 | 90 | 1015.8 |
| 20260902040012 | 81 | 9 | 3.0 | 9.0 | 0.00 | 0.00 | 0.00 | 89 | 1016.0 |
| 20260902034510 | 81 | 11 | 5.0 | 9.0 | 0.00 | 0.00 | 0.00 | 89 | 1016.1 |
| 20260902033009 | 81 | 11 | 5.0 | 10.0 | 0.00 | 0.00 | 0.00 | 89 | 1016.2 |
| 20260902031508 | 82 | 11 | 5.0 | 10.0 | 0.00 | 0.00 | 0.00 | 89 | 1016.4 |
| 20260902030008 | 82 | 11 | 6.0 | 10.0 | 0.00 | 0.00 | 0.00 | 89 | 1016.4 |
| 20260902024507 | 82 | 9 | 7.0 | 11.0 | 0.00 | 0.00 | 0.00 | 88 | 1016.7 |
| 20260902023017 | 82 | 9 | 4.0 | 11.0 | 0.00 | 0.00 | 0.00 | 88 | 1016.8 |
| 20260902021518 | 82 | 360 | 6.0 | 10.0 | 0.00 | 0.00 | 0.00 | 88 | 1016.7 |
| 20260902020108 | 82 | 5 | 5.0 | 12.0 | 0.00 | 0.00 | 0.00 | 87 | 1016.6 |
| 20260902014505 | 82 | 5 | 5.0 | 11.0 | 0.00 | 0.00 | 0.00 | 87 | 1016.6 |